Weather History for KBDN - December, 2012

Change the Weather History Date:

Sunday, December 23, 2012

  Actual Average (KRDM) Record (KRDM)
Temperature  
Mean Temperature 28 °F 30 °F  
Max Temperature 33 °F 40 °F 62 °F (1950)
Min Temperature 23 °F 20 °F -13 °F (1990)
Degree Days  
Heating Degree Days 37 35  
Month to date heating degree days 791  
Since 1 July heating degree days 2565  
Cooling Degree Days 0 0  
Month to date cooling degree days 0  
Year to date cooling degree days 222  
Moisture  
Dew Point 21 °F    
Average Humidity 68    
Maximum Humidity 87    
Minimum Humidity 51    
Precipitation  
Precipitation 1.07 in 0.03 in 0.63 in (1964)
Month to date precipitation 0.88  
Year to date precipitation 8.62  
Sea Level Pressure  
Sea Level Pressure 29.68 in    
Wind  
Wind Speed 7 mph (South)    
Max Wind Speed 16 mph    
Max Gust Speed 24 mph    
Visibility 8 miles    
Events Snow    
T = Trace of Precipitation, MM = Missing Value Source: NWS Daily Summary

Daily Weather History Graph

Daily Weather History Graph

Search for Another Location

Airport or City:

Trip Planner

Search our weather history database for the weather conditions in past years. The results will help you decide how hot, cold, wet, or windy it might be!

Date:

Astronomy

Dec. 23, 2012 Rise Set
Actual Time 7:37 AM PST 4:30 PM PST
Civil Twilight 7:04 AM PST 5:03 PM PST
Nautical Twilight 6:28 AM PST 5:40 PM PST
Astronomical Twilight 5:52 AM PST 6:15 PM PST
Moon 1:28 PM PST (12/23) 3:20 AM PST (12/23)
Length of Visible Light 9h 59m
Length of Day
8h 52m
Waxing Gibbous, 82% of the Moon is Illuminated
Dec 23
Waxing Gibbous
Dec 28
Full
Jan 4
Last Quarter
Jan 11
New
Jan 18
First Quarter

Hourly Weather History & Observations

Time (PST) Temp. Windchill Dew Point Humidity Pressure Visibility Wind Dir Wind Speed Gust Speed Precip Events Conditions
12:15 AM 32.0 °F 24.8 °F 15.8 °F 51% 29.78 in 10.0 mi SSE 8.1 mph - N/A   Clear
12:35 AM 32.0 °F 24.2 °F 15.8 °F 51% 29.78 in 10.0 mi South 9.2 mph - N/A   Clear
12:55 AM 32.0 °F 21.2 °F 15.8 °F 51% 29.79 in 10.0 mi SSW 16.1 mph 20.7 mph N/A   Clear
1:15 AM 32.0 °F 22.5 °F 15.8 °F 51% 29.78 in 10.0 mi SSW 12.7 mph 21.9 mph N/A   Clear
1:35 AM 32.0 °F 22.1 °F 15.8 °F 51% 29.79 in 10.0 mi South 13.8 mph 21.9 mph N/A   Clear
1:55 AM 32.0 °F 23.0 °F 17.6 °F 55% 29.79 in 10.0 mi SSW 11.5 mph - N/A   Clear
2:15 AM 32.0 °F 22.5 °F 15.8 °F 51% 29.80 in 10.0 mi SSW 12.7 mph 23.0 mph N/A   Clear
2:35 AM 32.0 °F 21.2 °F 15.8 °F 51% 29.80 in 10.0 mi SSW 16.1 mph - N/A   Clear
2:55 AM 32.0 °F 21.2 °F 15.8 °F 51% 29.80 in 10.0 mi SSW 16.1 mph 24.2 mph N/A   Clear
3:15 AM 32.0 °F 23.0 °F 15.8 °F 51% 29.79 in 10.0 mi South 11.5 mph - N/A   Clear
3:35 AM 32.0 °F 24.8 °F 15.8 °F 51% 29.78 in 10.0 mi South 8.1 mph - N/A   Clear
3:55 AM 32.0 °F - 15.8 °F 51% 29.79 in 10.0 mi Calm Calm - N/A   Clear
4:15 AM 28.4 °F 22.2 °F 15.8 °F 59% 29.78 in 10.0 mi SE 5.8 mph - N/A   Clear
4:35 AM 28.4 °F 24.6 °F 15.8 °F 59% 29.78 in 10.0 mi SSE 3.5 mph - N/A   Clear
4:55 AM 28.4 °F 23.3 °F 15.8 °F 59% 29.78 in 10.0 mi SSE 4.6 mph - N/A   Clear
5:15 AM 28.4 °F 24.6 °F 15.8 °F 59% 29.76 in 10.0 mi ESE 3.5 mph - N/A   Clear
5:35 AM 28.4 °F - 17.6 °F 64% 29.76 in 10.0 mi Calm Calm - N/A   Clear
5:55 AM 28.4 °F 22.2 °F 17.6 °F 64% 29.76 in 10.0 mi SSE 5.8 mph - N/A   Clear
6:15 AM 30.2 °F - 17.6 °F 60% 29.76 in 10.0 mi Calm Calm - N/A   Clear
6:35 AM 30.2 °F 24.3 °F 17.6 °F 60% 29.74 in 10.0 mi SSE 5.8 mph - N/A   Clear
6:55 AM 32.0 °F 24.8 °F 17.6 °F 55% 29.73 in 10.0 mi SSE 8.1 mph - N/A   Clear
7:15 AM 32.0 °F 24.8 °F 17.6 °F 55% 29.71 in 10.0 mi SSE 8.1 mph - N/A   Clear
7:35 AM 32.0 °F 23.6 °F 17.6 °F 55% 29.71 in 10.0 mi SSE 10.4 mph 16.1 mph N/A   Clear
7:55 AM 32.0 °F 24.8 °F 17.6 °F 55% 29.71 in 10.0 mi SSE 8.1 mph - N/A   Clear
8:15 AM 32.0 °F 25.6 °F 15.8 °F 51% 29.71 in 10.0 mi ESE 6.9 mph - N/A   Clear
8:35 AM 32.0 °F 25.6 °F 15.8 °F 51% 29.70 in 10.0 mi ESE 6.9 mph - N/A   Partly Cloudy
8:55 AM 32.0 °F 25.6 °F 17.6 °F 55% 29.68 in 9.0 mi SSE 6.9 mph - N/A   Mostly Cloudy
9:15 AM 32.0 °F 26.4 °F 17.6 °F 55% 29.67 in 9.0 mi ESE 5.8 mph - N/A   Mostly Cloudy
9:35 AM 32.0 °F 24.8 °F 17.6 °F 55% 29.67 in 10.0 mi SE 8.1 mph - N/A   Partly Cloudy
9:55 AM 32.0 °F 25.6 °F 19.4 °F 60% 29.67 in 10.0 mi SE 6.9 mph - N/A   Mostly Cloudy
10:15 AM 32.0 °F 25.6 °F 23.0 °F 69% 29.65 in 2.0 mi SE 6.9 mph - 0.01 in Snow Light Snow
10:35 AM 32.0 °F 25.6 °F 24.8 °F 75% 29.63 in 1.0 mi SE 6.9 mph - 0.06 in Snow Light Snow
10:55 AM 32.0 °F 28.7 °F 26.6 °F 80% 29.60 in 0.8 mi ESE 3.5 mph - 0.22 in Snow Light Snow
11:15 AM 32.0 °F 28.7 °F 26.6 °F 80% 29.59 in 1.0 mi ESE 3.5 mph - 0.04 in Snow Light Snow
11:35 AM 32.0 °F 26.4 °F 26.6 °F 80% 29.56 in 1.5 mi ESE 5.8 mph - 0.06 in Snow Light Snow
11:55 AM 32.0 °F 26.4 °F 26.6 °F 80% 29.53 in 1.5 mi ESE 5.8 mph - 0.09 in Snow Light Snow
12:15 PM 32.0 °F 26.4 °F 26.6 °F 80% 29.51 in 1.0 mi SE 5.8 mph - 0.03 in Snow Light Snow
12:35 PM 32.0 °F 25.6 °F 26.6 °F 80% 29.49 in 0.5 mi SE 6.9 mph - 0.17 in Snow Snow
12:55 PM 32.0 °F 27.5 °F 28.4 °F 87% 29.49 in 1.0 mi ESE 4.6 mph - 0.37 in Snow Light Snow
1:15 PM 32.0 °F 28.7 °F 28.4 °F 87% 29.48 in 1.8 mi ESE 3.5 mph - 0.02 in Snow Light Snow
1:35 PM 32.0 °F - 28.4 °F 87% 29.49 in 1.5 mi Calm Calm - 0.08 in Snow Light Snow
1:55 PM 32.0 °F 27.5 °F 28.4 °F 87% 29.49 in 0.5 mi WSW 4.6 mph - 0.32 in Snow Snow
2:15 PM 32.0 °F 28.7 °F 28.4 °F 87% 29.49 in 1.2 mi SSE 3.5 mph - 0.06 in Snow Light Snow
2:35 PM 32.0 °F 25.6 °F 28.4 °F 87% 29.50 in 10.0 mi SW 6.9 mph - 0.07 in   Partly Cloudy
2:55 PM 33.8 °F 29.6 °F 28.4 °F 81% 29.51 in 10.0 mi WSW 4.6 mph - 0.07 in   Clear
3:15 PM 33.8 °F 30.8 °F 28.4 °F 81% 29.52 in 10.0 mi WNW 3.5 mph - N/A   Scattered Clouds
3:35 PM 33.8 °F 27.7 °F 26.6 °F 75% 29.53 in 10.0 mi NW 6.9 mph - N/A   Mostly Cloudy
3:55 PM 32.0 °F 26.4 °F 26.6 °F 80% 29.54 in 10.0 mi WNW 5.8 mph - N/A   Partly Cloudy
4:15 PM 32.0 °F 27.5 °F 26.6 °F 80% 29.56 in 10.0 mi WSW 4.6 mph - N/A   Clear
4:35 PM 32.0 °F 22.5 °F 24.8 °F 75% 29.57 in 10.0 mi SW 12.7 mph 18.4 mph N/A   Clear
4:55 PM 32.0 °F 22.1 °F 24.8 °F 75% 29.58 in 10.0 mi SW 13.8 mph 20.7 mph N/A   Clear
5:15 PM 32.0 °F 24.8 °F 23.0 °F 69% 29.59 in 10.0 mi WSW 8.1 mph - N/A   Clear
5:35 PM 32.0 °F 27.5 °F 23.0 °F 69% 29.61 in 10.0 mi North 4.6 mph - N/A   Clear
5:55 PM 28.4 °F - 23.0 °F 80% 29.63 in 10.0 mi Calm Calm - N/A   Clear
6:15 PM 26.6 °F - 21.2 °F 80% 29.64 in 10.0 mi Calm Calm - N/A   Clear
6:35 PM 26.6 °F - 21.2 °F 80% 29.64 in 10.0 mi Calm Calm - N/A   Clear
6:55 PM 30.2 °F 23.4 °F 21.2 °F 69% 29.66 in 10.0 mi SSW 6.9 mph - N/A   Clear
7:15 PM 32.0 °F 26.4 °F 21.2 °F 64% 29.67 in 10.0 mi South 5.8 mph - N/A   Clear
7:35 PM 28.4 °F 24.6 °F 19.4 °F 69% 29.69 in 10.0 mi WSW 3.5 mph - N/A   Clear
7:55 PM 30.2 °F 22.6 °F 21.2 °F 69% 29.71 in 10.0 mi WSW 8.1 mph - N/A   Scattered Clouds
8:15 PM 30.2 °F 26.7 °F 21.2 °F 69% 29.72 in 10.0 mi West 3.5 mph - N/A   Scattered Clouds
8:35 PM 30.2 °F 24.3 °F 21.2 °F 69% 29.73 in 10.0 mi West 5.8 mph - N/A   Clear
8:55 PM 28.4 °F - 19.4 °F 69% 29.74 in 10.0 mi Calm Calm - N/A   Partly Cloudy
9:15 PM 28.4 °F - 19.4 °F 69% 29.76 in 10.0 mi Calm Calm - N/A   Mostly Cloudy
9:35 PM 28.4 °F - 21.2 °F 74% 29.76 in 7.0 mi Calm Calm - N/A Snow Light Snow
9:55 PM 26.6 °F - 19.4 °F 74% 29.77 in 9.0 mi Calm Calm - N/A   Clear
10:15 PM 24.8 °F - 17.6 °F 74% 29.78 in 10.0 mi Calm Calm - N/A   Clear
10:35 PM 23.0 °F - 17.6 °F 80% 29.80 in 10.0 mi Calm Calm - N/A   Clear
10:55 PM 23.0 °F - 17.6 °F 80% 29.82 in 10.0 mi Calm Calm - N/A   Partly Cloudy
11:15 PM 24.8 °F - 17.6 °F 74% 29.82 in 10.0 mi Calm Calm - N/A   Clear
11:35 PM 24.8 °F - 17.6 °F 74% 29.82 in 10.0 mi Calm Calm - N/A   Clear
11:55 PM 24.8 °F - 17.6 °F 74% 29.83 in 10.0 mi Calm Calm - N/A   Clear